Flag for United Kingdom Weather past 2 weeks in Ipswich, England, United Kingdom

Now
68 °F

Partly sunny.


Feels Like: 68 °F
Forecast: 53 / 72 °F
Wind: 10 mph from Southwest

Location: Wattisham

Current Time: Aug 1, 2015 at 3:02:22 PM

Latest Report: Aug 1, 2015 at 1:50 PM


Visibility: N/A

Pressure: 29.98 "Hg

Humidity: 43%

Dew point: 45 °F

Location of IpswichLocation

Historic Weather in Ipswich — Graph

°F

Ipswich temperature yesterday

Maximum temperature yesterday: 66 °F (at 2:50 PM)
Minimum temperature yesterday: 48 °F (at 2:50 AM)
Average temperature yesterday: 58 °F

Past Weeks' High & Low Weather Summary

 TemperatureHumidityPressure
High77 °F (Jul 17, 2:50 PM)100% (Jul 23, 3:50 AM)30.12 "Hg (Jul 23, 3:50 AM)
Low45 °F (Jul 29, 3:50 AM)31% (Jul 19, 3:50 PM)29.39 "Hg (Jul 26, 10:50 PM)
Average60 °F73%29.85 "Hg
* Reported Jul 17 12:50 PM — Aug 1 12:50 PM, Ipswich, Weather by CustomWeather, © 2015

Note: Actual official high and low records may vary slightly from our data, if they occured in-between our weather recording intervals... More about our weather records

Advertising

Ipswich weather history for previous 24 hours

 ConditionsComfort  
Time TempWeatherWind HumidityBarometerVisibility
12:50 PM
Sat, Aug 1
68 °FPassing clouds.10 mph46%29.98 "HgN/A
11:50 AM66 °FMild.10 mph49%30.01 "HgN/A
10:50 AM64 °FMild.9 mph52%30.01 "HgN/A
8:50 AM59 °FCool.6 mph68%29.98 "HgN/A
7:50 AM55 °FCool.7 mph77%29.98 "HgN/A
6:50 AM52 °FCool.7 mph88%29.98 "HgN/A
5:50 AM50 °FCool.6 mph88%29.98 "HgN/A
4:50 AM50 °FCool.5 mph94%29.98 "HgN/A
3:50 AM52 °FPassing clouds.5 mph88%29.98 "HgN/A
2:50 AM55 °FPassing clouds.7 mph82%29.98 "HgN/A
1:50 AM55 °FOvercast.7 mph88%29.98 "HgN/A
12:50 AM57 °FPassing clouds.8 mph82%30.01 "HgN/A
11:50 PM
Fri, Jul 31
57 °FOvercast.8 mph82%30.01 "HgN/A
10:50 PM57 °FOvercast.8 mph77%30.01 "HgN/A
9:50 PM55 °FPassing clouds.8 mph82%30.01 "HgN/A
8:50 PM57 °FCool.8 mph77%30.01 "HgN/A
7:50 PM61 °FCool.10 mph63%30.01 "HgN/A
6:50 PM63 °FMild.12 mph59%30.01 "HgN/A
5:50 PM63 °FPassing clouds.13 mph59%30.01 "HgN/A
4:50 PM64 °FPartly sunny.12 mph52%30.04 "HgN/A
3:50 PM66 °FSunny.12 mph49%30.04 "Hg10 mi
Weather by CustomWeather, © 2015

See weather overviewHow to use our weather pages